Sioux Gateway Airport
Sunday 1:52 PM
Temperature76° (76°/57°)
Dew Point57°
Relative Humidity52
%
Visibility10
mi
Pressure1020.3
mb
Wind DirectionSE
140°
Wind Speed21
mph
(G33)
Precipitation TodayTrace

Last 30 Observations

Time PresWx Temp DP Feels RH% Vsby Pressure Ceiling Direction Speed 1h Precip
1:52 PM 76° 57° 52
%
10
mi
1020.3
mb
SE
140°
21
mph
(G33)
0.00"
12:52 PM 73° 57° 57
%
10
mi
1021.7
mb
SSE
150°
21
mph
(G32)
0.00"
11:52 AM 68° 56° 65
%
10
mi
1022.7
mb
8,000
ft
SE
140°
21
mph
(G29)
0.00"
10:52 AM 65° 55° 70
%
10
mi
1023.4
mb
6,500
ft
SSE
160°
17
mph
(G24)
0.00"
9:52 AM -RA 62° 54° 75
%
10
mi
1024.1
mb
7,000
ft
SE
140°
13
mph
0.00"
8:52 AM 62° 54° 75
%
10
mi
1024.1
mb
7,500
ft
SE
140°
9
mph
0.00"
7:52 AM 60° 52° 75
%
10
mi
1023.7
mb
8,000
ft
SE
130°
9
mph
0.00"
6:52 AM 59° 53° 81
%
10
mi
1023.0
mb
5,000
ft
ESE
120°
8
mph
0.00"
5:52 AM 59° 54° 83
%
10
mi
1023.0
mb
5,500
ft
ESE
120°
8
mph
0.00"
4:52 AM 59° 54° 83
%
10
mi
1023.0
mb
5,500
ft
SE
130°
3
mph
0.00"
3:52 AM 59° 54° 83
%
10
mi
1023.4
mb
6,000
ft
ESE
110°
5
mph
0.00"
2:52 AM -RA 59° 54° 83
%
10
mi
1023.7
mb
6,000
ft
E
100°
5
mph
0.00"
1:52 AM 58° 54° 87
%
10
mi
1024.4
mb
6,500
ft
ESE
110°
5
mph
0.00"
12:52 AM 57° 54° 89
%
10
mi
1024.4
mb
10,000
ft
SE
130°
3
mph
0.00"
11:52 PM 59° 53° 81
%
10
mi
1024.1
mb
10,000
ft
SE
140°
6
mph
0.00"
10:52 PM 59° 53° 81
%
10
mi
1024.1
mb
10,000
ft
Calm 0.00"
9:52 PM 61° 52° 72
%
10
mi
1023.7
mb
7,000
ft
Calm 0.00"
8:52 PM 61° 53° 75
%
10
mi
1023.4
mb
7,000
ft
S
170°
3
mph
0.00"
7:52 PM 62° 53° 72
%
10
mi
1023.4
mb
6,500
ft
SSW
200°
6
mph
0.00"
6:52 PM 63° 52° 67
%
10
mi
1023.7
mb
7,000
ft
WSW
240°
6
mph
0.00"
5:52 PM 65° 50° 58
%
10
mi
1024.1
mb
6,500
ft
SSW
210°
6
mph
0.00"
4:52 PM 64° 51° 63
%
10
mi
1024.4
mb
8,000
ft
Calm 0.00"
3:52 PM 64° 51° 63
%
10
mi
1024.7
mb
9,000
ft
Calm 0.00"
2:52 PM 63° 50° 63
%
10
mi
1025.1
mb
11,000
ft
WSW
240°
5
mph
0.00"
1:52 PM 62° 51° 67
%
10
mi
1025.4
mb
10,000
ft
SW
230°
8
mph
0.00"
12:52 PM 64° 50° 60
%
10
mi
1025.4
mb
11,000
ft
SSW
210°
9
mph
0.00"
11:52 AM 65° 50° 58
%
10
mi
1025.4
mb
10,000
ft
Variable 5
mph
0.00"
10:52 AM 64° 50° 60
%
10
mi
1025.1
mb
10,000
ft
ESE
110°
6
mph
0.00"
9:52 AM 61° 50° 67
%
10
mi
1025.1
mb
8,500
ft
E
90°
7
mph
0.00"
8:52 AM 59° 49° 69
%
10
mi
1025.7
mb
7,500
ft
ENE
60°
5
mph
0.00"